Weather observations for the past three days for
ROLLA
Imperial (Metric)
Date Time (cdt) Wind (mph) Vis. (mi.) Weather Sky Cond. Temperature (ºF) Relative Humidity Wind Chill (°F) Heat Index (°F) Pressure Precipitation (in)
Air Dwpt 6 hour altimeter (in) sea level (mb) 1 hr 3 hr 6 hr
Max. Min.
07 02:15 Calm 10.00 Fair CLR 26.6 14 59% 29.85 0.0
07 01:55 Calm 10.00 Fair CLR 26.6 14 59% 29.85 0.0
07 01:35 Calm 10.00 Fair CLR 28.4 14 55% 29.86 0.0
07 01:15 Calm 10.00 Fair CLR 26.6 14 59% 29.85 0.0
07 00:55 Calm 10.00 Fair CLR 28.4 14 55% 29.86 0.0
07 00:35 NE 3 10.00 Fair CLR 26.6 14 59% 29.86 0.0
07 00:15 N 6 10.00 Fair CLR 26.6 12.2 54% 21 29.86 0.0
06 23:55 N 7 10.00 Fair CLR 26.6 14 59% 20 29.86 0.0
06 23:35 N 6 10.00 Fair CLR 26.6 14 59% 21 29.86 0.0
06 23:15 Calm 10.00 Fair CLR 26.6 14 59% 29.86 0.0
06 22:55 NW 3 10.00 Fair CLR 32 10.4 40% 29.86 0.0
06 22:35 Calm 10.00 Fair CLR 30.2 12.2 47% 29.87 0.0
06 22:15 W 6 10.00 Fair CLR 28.4 12.2 51% 23 29.87 0.0
06 21:55 W 5 10.00 A Few Clouds FEW060 FEW070 32 10.4 40% 28 29.87 0.0
06 21:35 W 6 10.00 Fair CLR 33.8 8.6 35% 29 29.87 0.0
06 21:15 NW 7 10.00 A Few Clouds FEW070 37.4 5 26% 33 29.87 0.0
06 20:55 NW 8 10.00 Partly Cloudy SCT070 41 5 22% 36 29.87 0.0
06 20:35 NW 10 10.00 Mostly Cloudy BKN070 BKN080 42.8 1.4 17% 38 29.87 0.0
06 20:15 NW 12 10.00 Overcast BKN070 OVC075 44.6 -0.4 15% 39 29.87 0.0
06 19:55 NW 12 10.00 Overcast FEW060 BKN070 OVC085 46.4 -0.4 14% 42 29.87 0.0
06 19:35 NW 15 G 23 10.00 Overcast OVC070 46.4 -2.2 13% 41 29.87 0.0
06 19:15 N 10 10.00 Overcast OVC070 46.4 -0.4 14% 42 29.88 0.0
06 18:55 NW 13 G 21 10.00 Overcast OVC070 48.2 -2.2 12% 43 29.88 0.0
06 18:35 NW 10 10.00 Mostly Cloudy BKN070 BKN085 44.6 -0.4 15% 40 29.88 0.0
06 18:15 NW 13 10.00 Mostly Cloudy SCT065 BKN075 44.6 -0.4 15% 39 29.89 0.0
06 17:55 NW 14 10.00 Mostly Cloudy SCT060 BKN075 46.4 -2.2 13% 41 29.89 0.0
06 17:35 N 9 10.00 Mostly Cloudy SCT060 BKN075 46.4 -4 12% 42 29.89 0.0
06 17:15 NW 9 G 20 10.00 Mostly Cloudy BKN070 BKN080 48.2 -5.8 10% 45 29.9 0.0
06 16:55 NW 14 10.00 Mostly Cloudy FEW060 BKN070 BKN080 46.4 -2.2 13% 41 29.9 0.0
06 16:35 W 12 G 20 10.00 Mostly Cloudy BKN065 BKN075 46.4 -2.2 13% 42 29.91 0.0
06 16:15 NW 14 G 22 10.00 Mostly Cloudy BKN065 BKN070 48.2 -2.2 12% 43 29.92 0.0
06 15:55 N 15 10.00 Mostly Cloudy BKN060 BKN070 46.4 1.4 15% 41 29.92 0.0
06 15:35 NW 13 10.00 Mostly Cloudy BKN065 46.4 -0.4 14% 41 29.93 0.0
06 15:15 W 10 G 17 10.00 Mostly Cloudy BKN060 BKN070 46.4 1.4 15% 42 29.93 0.0
06 14:55 NW 12 10.00 Overcast BKN055 OVC065 44.6 3.2 18% 39 29.94 0.0
06 14:35 NW 7 10.00 Overcast OVC055 42.8 3.2 19% 39 29.94 0.0
06 14:15 NW 15 G 22 10.00 Overcast OVC055 42.8 5 21% 36 29.95 0.0
06 13:55 N 13 G 21 10.00 Overcast SCT050 OVC060 42.8 5 21% 37 29.95 0.0
06 13:35 N 12 G 21 10.00 Overcast BKN049 OVC060 42.8 6.8 22% 37 29.96 0.0
06 13:15 NW 12 G 18 10.00 Overcast OVC050 41 6.8 24% 35 29.97 0.0
06 12:55 NW 14 10.00 Overcast OVC050 41 8.6 26% 34 29.98 0.0
06 12:35 N 16 10.00 Overcast OVC049 41 8.6 26% 33 29.98 0.0
06 12:15 NW 16 G 24 10.00 Overcast OVC049 41 8.6 26% 33 29.98 0.0
06 11:55 NW 17 10.00 Overcast OVC050 41 8.6 26% 33 29.99 0.0
06 11:35 NW 16 G 22 10.00 Overcast BKN046 OVC050 39.2 8.6 28% 31 29.99 0.0
06 11:15 NW 14 G 20 10.00 Overcast BKN043 OVC050 39.2 8.6 28% 32 30 0.0
06 10:55 NW 12 G 22 10.00 Overcast BKN042 OVC049 39.2 10.4 30% 33 30 0.0
06 10:35 NW 15 10.00 Mostly Cloudy SCT040 BKN049 BKN060 39.2 10.4 30% 31 30 0.0
06 10:15 W 15 10.00 Mostly Cloudy BKN049 BKN055 39.2 12.2 33% 31 30 0.0
06 09:55 NW 15 10.00 Overcast FEW039 OVC050 37.4 14 38% 29 30 0.0
06 09:35 W 14 10.00 Overcast OVC050 35.6 14 41% 27 30.01 0.0
06 09:15 W 13 10.00 Overcast OVC050 35.6 15.8 44% 28 30.01 0.0
06 08:55 W 13 10.00 Overcast OVC050 33.8 15.8 48% 25 30.01 0.0
06 08:35 NW 12 10.00 Overcast OVC050 33.8 14 44% 26 30.01 0.0
06 08:15 W 13 10.00 Overcast OVC050 33.8 14 44% 25 30.01 0.0
06 07:55 NW 12 10.00 Overcast OVC055 32 15.8 51% 24 30.01 0.0
06 07:35 NW 8 10.00 Overcast OVC055 32 15.8 51% 25 30.01 0.0
06 07:15 NW 12 10.00 Overcast OVC060 32 15.8 51% 24 30 0.0
06 06:55 NW 8 10.00 Overcast OVC055 32 17.6 55% 25 30 0.0
06 06:35 NW 6 10.00 Overcast OVC055 30.2 17.6 59% 25 30 0.0
06 06:15 NW 7 10.00 Overcast OVC055 30.2 17.6 59% 24 30 0.0
06 05:55 NW 7 10.00 Overcast FEW045 OVC055 30.2 17.6 59% 24 30 0.0
06 05:35 NW 6 10.00 Overcast OVC050 30.2 17.6 59% 25 30 0.0
06 05:15 W 5 10.00 Overcast OVC047 30.2 17.6 59% 26 30 0.0
06 04:55 W 3 10.00 Overcast OVC041 30.2 17.6 59% 30 0.0
06 04:35 NW 5 10.00 Overcast BKN042 OVC048 30.2 15.8 55% 26 30 0.0
06 04:15 W 6 10.00 Overcast BKN042 OVC048 30.2 15.8 55% 25 30 0.0
06 03:55 NW 6 10.00 Overcast OVC041 32 17.6 55% 27 30 0.0
06 03:35 W 6 10.00 Overcast OVC041 32 15.8 51% 27 29.99 0.0
06 03:15 W 5 10.00 Overcast OVC041 32 15.8 51% 28 30 0.0
06 02:55 W 5 10.00 Overcast OVC040 30.2 15.8 55% 26 30 0.0
06 02:35 W 5 10.00 Overcast OVC041 30.2 17.6 59% 26 30 0.0
06 02:15 W 5 10.00 Overcast OVC041 30.2 17.6 59% 26 30 0.0
06 01:55 NW 6 10.00 Overcast OVC041 30.2 15.8 55% 25 30 0.0
06 01:15 NW 5 10.00 Overcast OVC040 30.2 15.8 55% 26 30 0.0
06 00:55 N 5 10.00 Overcast OVC038 32 15.8 51% 28 30 0.0
06 00:35 NW 5 10.00 Overcast OVC037 32 14 47% 28 30 0.0
06 00:15 N 6 10.00 Overcast OVC036 32 14 47% 27 30 0.0
05 23:55 NW 6 10.00 Overcast OVC036 32 14 47% 27 30 0.0
05 23:35 N 7 10.00 Overcast OVC036 32 14 47% 26 30 0.0
05 23:15 N 6 10.00 Overcast OVC036 32 14 47% 27 30 0.0
05 22:55 N 8 10.00 Overcast OVC034 32 14 47% 25 30 0.0
05 22:35 Calm 10.00 Overcast OVC034 32 12.2 44% 30 0.0
05 22:15 N 10 10.00 Overcast OVC034 32 14 47% 24 30 0.0
05 21:55 N 9 10.00 Overcast OVC035 32 12.2 44% 25 29.99 0.0
05 21:35 N 10 10.00 Overcast OVC035 32 12.2 44% 24 29.99 0.0
05 21:15 N 12 10.00 Overcast OVC036 33.8 12.2 41% 26 29.98 0.0
05 20:55 N 8 10.00 Overcast OVC037 33.8 12.2 41% 28 29.97 0.0
05 20:35 N 9 G 15 10.00 Overcast OVC036 33.8 10.4 38% 27 29.97 0.0
05 20:15 NW 9 10.00 Overcast OVC036 33.8 10.4 38% 27 29.97 0.0
05 19:55 NW 12 10.00 Overcast OVC036 33.8 10.4 38% 26 29.96 0.0
05 19:35 NW 14 10.00 Overcast OVC036 33.8 10.4 38% 25 29.96 0.0
05 19:15 NW 13 10.00 Overcast OVC035 33.8 12.2 41% 25 29.96 0.0
05 18:55 NW 14 10.00 Overcast OVC035 33.8 10.4 38% 25 29.96 0.0
05 18:35 NW 16 10.00 Overcast OVC036 33.8 10.4 38% 24 29.96 0.0
05 18:15 NW 15 G 21 10.00 Overcast OVC036 33.8 10.4 38% 25 29.95 0.0
05 17:55 NW 16 10.00 Overcast OVC037 33.8 10.4 38% 24 29.95 0.0
05 17:35 N 16 10.00 Overcast OVC037 35.6 10.4 35% 27 29.95 0.0
05 17:15 NW 17 10.00 Overcast OVC038 35.6 10.4 35% 26 29.94 0.0
05 16:55 NW 15 10.00 Overcast OVC038 35.6 8.6 32% 27 29.94 0.0
05 16:35 NW 15 G 21 10.00 Overcast OVC038 35.6 8.6 32% 27 29.94 0.0
05 16:15 NW 17 10.00 Overcast OVC038 35.6 8.6 32% 26 29.94 0.0
05 15:55 NW 20 10.00 Overcast OVC038 35.6 8.6 32% 26 29.94 0.0
05 15:35 NW 15 10.00 Overcast OVC039 35.6 8.6 32% 27 29.94 0.0
05 15:15 N 15 10.00 Overcast OVC039 35.6 8.6 32% 27 29.94 0.0
05 14:55 N 18 G 24 10.00 Overcast OVC037 35.6 10.4 35% 26 29.93 0.0
05 14:35 N 17 10.00 Overcast OVC035 33.8 10.4 38% 24 29.93 0.0
05 14:15 N 18 10.00 Overcast OVC036 33.8 12.2 41% 24 29.93 0.0
05 13:55 N 16 G 23 10.00 Overcast BKN034 OVC039 33.8 10.4 38% 24 29.92 0.0
05 13:35 N 18 G 24 10.00 Overcast BKN032 OVC039 33.8 12.2 41% 24 29.92 0.0
05 13:15 N 15 G 22 10.00 Overcast OVC037 35.6 14 41% 27 29.92 0.0
05 12:55 N 17 G 24 10.00 Overcast OVC037 33.8 12.2 41% 24 29.92 0.0
05 12:35 NW 18 10.00 Overcast OVC038 35.6 8.6 32% 26 29.91 0.0
05 12:15 N 18 G 25 10.00 Overcast OVC035 33.8 12.2 41% 24 29.91 0.0
05 11:55 NW 17 G 25 10.00 Overcast BKN029 OVC035 32 15.8 51% 22 29.91 0.0
05 11:35 NW 14 10.00 Light Snow SCT026 BKN032 OVC037 32 15.8 51% 23 29.91 0.0
05 11:15 N 15 10.00 Overcast FEW020 BKN027 OVC034 32 17.6 55% 22 29.9 0.0
05 10:55 N 13 10.00 Overcast SCT019 BKN025 OVC038 32 17.6 55% 23 29.9 0.0
05 10:35 N 13 10.00 Light Snow SCT019 BKN027 OVC033 30.2 21.2 69% 21 29.9 0.0
05 10:15 NW 16 10.00 Overcast SCT025 OVC034 30.2 17.6 59% 20 29.9 0.0
05 09:55 Vrbl 5 G 14 10.00 Light Snow FEW021 BKN026 OVC034 30.2 19.4 64% 26 29.89 0.0
05 09:35 NW 8 10.00 Light Unknown Precip SCT022 BKN027 OVC039 30.2 17.6 59% 23 29.89 0.0
05 09:15 N 9 G 15 10.00 Light Unknown Precip SCT022 BKN029 OVC040 30.2 17.6 59% 23 29.89 0.0
05 08:55 N 8 10.00 Overcast BKN020 BKN027 OVC040 30.2 17.6 59% 23 29.88 0.0
05 08:35 N 10 10.00 Overcast BKN019 BKN023 OVC038 30.2 17.6 59% 22 29.88 0.0
05 08:15 N 9 10.00 Overcast BKN018 BKN024 OVC038 28.4 17.6 64% 20 29.87 0.0
05 07:55 N 12 10.00 Light Unknown Precip FEW019 SCT029 OVC039 28.4 19.4 69% 19 29.87 0.0
05 07:35 NW 9 10.00 Mostly Cloudy FEW015 SCT022 BKN037 30.2 19.4 64% 23 29.86 0.0
05 07:15 N 8 10.00 Overcast FEW023 BKN034 OVC040 30.2 21.2 69% 23 29.85 0.0
05 06:55 N 7 10.00 Overcast SCT019 SCT025 OVC040 28.4 21.2 74% 22 29.85 0.0
05 06:35 Calm 10.00 Overcast BKN020 OVC041 28.4 21.2 74% 29.84 0.0
05 06:15 Calm 10.00 Overcast BKN039 OVC090 26.6 21.2 80% 29.84 0.0
05 05:55 N 3 10.00 Overcast FEW042 OVC090 28.4 21.2 74% 29.83 0.0
05 05:35 Calm 10.00 Overcast BKN040 BKN050 OVC085 28.4 21.2 74% 29.83 0.0
05 05:15 N 5 10.00 Overcast BKN038 BKN043 OVC050 28.4 21.2 74% 24 29.83 0.0
05 04:55 NW 5 10.00 Overcast FEW037 BKN045 OVC055 28.4 21.2 74% 24 29.82 0.0
05 04:35 NW 5 10.00 Overcast OVC055 28.4 21.2 74% 24 29.82 0.0
05 04:15 NW 5 10.00 Overcast OVC055 28.4 21.2 74% 24 29.82 0.0
05 03:55 N 5 10.00 Overcast FEW041 SCT050 OVC055 28.4 21.2 74% 24 29.81 0.0
05 03:35 N 3 10.00 Overcast SCT041 OVC049 30.2 21.2 69% 29.81 0.0
05 03:15 N 5 10.00 Overcast SCT038 BKN046 OVC055 30.2 19.4 64% 26 29.81 0.0
05 02:55 NE 9 10.00 Overcast SCT039 OVC048 30.2 19.4 64% 23 29.81 0.0
05 02:35 NE 12 10.00 Overcast OVC045 30.2 19.4 64% 21 29.8 0.0
05 02:15 N 10 10.00 Overcast BKN046 OVC050 32 15.8 51% 24 29.79 0.0
05 01:55 N 12 G 20 10.00 Overcast BKN046 OVC055 33.8 12.2 41% 26 29.79 0.0
05 01:35 NW 8 G 15 10.00 Overcast OVC049 35.6 12.2 38% 30 29.78 0.0
05 01:15 NW 15 10.00 Overcast BKN050 OVC055 35.6 8.6 32% 27 29.78 0.0
05 00:55 NW 13 10.00 Overcast BKN050 OVC055 35.6 8.6 32% 28 29.78 0.0
05 00:35 NW 12 10.00 Overcast SCT050 OVC065 35.6 10.4 35% 28 29.78 0.0
05 00:15 NW 12 10.00 Overcast SCT049 SCT060 OVC070 35.6 10.4 35% 28 29.78 0.0
04 23:55 NW 13 10.00 Overcast SCT050 BKN060 OVC080 35.6 10.4 35% 28 29.78 0.0
04 23:35 NW 13 G 20 10.00 Overcast FEW055 SCT060 OVC075 35.6 10.4 35% 28 29.78 0.0
04 23:15 NW 12 10.00 Overcast SCT060 BKN070 OVC080 35.6 10.4 35% 28 29.78 0.0
04 22:55 NW 13 10.00 Overcast FEW060 OVC070 35.6 10.4 35% 28 29.78 0.0
04 22:35 NW 12 10.00 Overcast FEW060 OVC075 35.6 10.4 35% 28 29.78 0.0
04 22:15 NW 12 10.00 Overcast SCT050 BKN060 OVC075 35.6 10.4 35% 28 29.78 0.0
04 21:55 NW 13 10.00 Overcast SCT050 BKN060 OVC075 35.6 8.6 32% 28 29.78 0.0
04 21:35 NW 13 10.00 Overcast SCT055 BKN065 OVC075 35.6 8.6 32% 28 29.77 0.0
04 21:15 NW 15 G 24 10.00 Overcast FEW050 OVC060 37.4 6.8 28% 29 29.77 0.0
04 20:55 NW 21 10.00 Overcast and Breezy BKN055 BKN065 OVC075 37.4 6.8 28% 28 29.76 0.0
04 20:35 NW 18 10.00 Overcast BKN055 OVC075 37.4 5 26% 28 29.75 0.0
04 20:15 NW 17 G 25 10.00 Overcast SCT055 OVC075 37.4 5 26% 29 29.75 0.0
04 19:55 NW 18 10.00 Overcast FEW047 BKN060 OVC075 39.2 5 24% 31 29.74 0.0
04 19:35 N 22 10.00 Overcast and Breezy BKN060 OVC075 39.2 5 24% 30 29.73 0.0
04 19:15 NW 23 G 30 10.00 Overcast and Breezy BKN060 OVC075 39.2 3.2 22% 29 29.73 0.0
04 18:55 N 22 G 29 10.00 Overcast and Breezy BKN060 OVC070 42.8 1.4 17% 34 29.72 0.0
04 18:35 NW 23 G 31 10.00 Overcast and Breezy BKN065 OVC075 42.8 -0.4 16% 34 29.72 0.0
04 18:15 NW 22 G 31 10.00 Mostly Cloudy and Breezy BKN060 BKN075 41 -0.4 17% 32 29.72 0.0
04 17:55 NW 26 10.00 Mostly Cloudy and Windy BKN060 BKN070 42.8 -0.4 16% 34 29.71 0.0
04 17:35 NW 25 G 32 10.00 Mostly Cloudy and Breezy BKN060 BKN070 44.6 1.4 16% 36 29.71 0.0
04 17:15 NW 24 G 32 10.00 Mostly Cloudy and Breezy SCT060 BKN070 41 3.2 20% 32 29.71 0.0
04 16:55 NW 29 10.00 Mostly Cloudy and Windy BKN060 BKN070 42.8 5 21% 33 29.7 0.0
04 16:35 NW 30 10.00 Mostly Cloudy and Windy BKN060 BKN070 41 6.8 24% 31 29.7 0.0
04 16:15 NW 25 G 36 10.00 Mostly Cloudy and Breezy BKN055 BKN070 42.8 6.8 22% 34 29.69 0.0
04 15:55 NW 26 G 38 10.00 Mostly Cloudy and Windy FEW049 BKN065 41 6.8 24% 31 29.69 0.0
04 15:35 NW 31 G 39 10.00 Mostly Cloudy and Windy FEW047 FEW055 BKN070 42.8 8.6 24% 33 29.69 0.0
04 15:15 NW 26 10.00 Overcast and Windy SCT047 SCT055 OVC065 42.8 8.6 24% 34 29.69 0.0
04 14:55 NW 28 G 33 10.00 Light Unknown Precip and Windy SCT049 BKN060 BKN065 41 8.6 26% 31 29.69 0.0
04 14:35 NW 22 G 32 10.00 Mostly Cloudy and Breezy SCT049 BKN060 41 8.6 26% 32 29.68 0.0
04 14:15 NW 28 10.00 Overcast and Windy FEW049 OVC060 41 8.6 26% 31 29.68 0.0
04 13:55 NW 23 G 31 10.00 Overcast and Breezy BKN050 OVC060 41 10.4 28% 32 29.68 0.0
04 13:35 NW 22 G 33 10.00 Overcast and Breezy BKN048 BKN055 OVC060 41 8.6 26% 32 29.67 0.0
04 13:15 NW 28 G 37 10.00 Overcast and Windy BKN047 OVC055 41 10.4 28% 31 29.67 0.0
04 12:55 N 25 G 35 10.00 Light Unknown Precip and Breezy BKN046 OVC055 39.2 10.4 30% 29 29.66 0.0
04 12:35 NW 24 G 38 10.00 Overcast and Breezy BKN045 OVC055 39.2 14 36% 29 29.66 0.0
04 12:15 NW 24 G 35 10.00 Overcast and Breezy FEW035 BKN043 OVC050 39.2 15.8 39% 29 29.66 0.0
04 11:55 NW 29 G 39 10.00 Mostly Cloudy and Windy SCT036 BKN043 BKN055 39.2 15.8 39% 28 29.65 0.0
04 11:35 NW 26 G 38 10.00 Light Unknown Precip and Windy BKN034 OVC039 35.6 19.4 52% 24 29.66 0.0
04 11:15 NW 25 G 41 10.00 Overcast and Breezy BKN035 BKN042 OVC049 37.4 17.6 45% 27 29.65 0.0
04 10:55 NW 29 G 40 10.00 Overcast and Windy SCT028 OVC050 39.2 17.6 42% 28 29.64 0.0
04 10:35 NW 29 G 38 10.00 Overcast and Windy FEW026 SCT040 OVC055 39.2 21.2 48% 28 29.63 0.0
04 10:15 NW 24 G 31 10.00 Light Unknown Precip and Breezy SCT035 BKN041 OVC055 37.4 23 56% 27 29.63 0.0
04 09:55 NW 17 G 28 10.00 Overcast FEW027 SCT046 OVC050 37.4 23 56% 29 29.63 0.0
04 09:35 NW 22 G 31 10.00 Overcast and Breezy FEW026 OVC050 37.4 23 56% 27 29.63 0.0
04 09:15 NW 22 G 31 10.00 Overcast and Breezy FEW025 SCT031 OVC050 37.4 23 56% 27 29.63 0.0
04 08:55 NW 24 G 40 10.00 Overcast and Breezy FEW032 OVC046 35.6 21.2 56% 24 29.63 0.0
04 08:35 NW 26 10.00 Overcast and Windy OVC047 35.6 19.4 52% 24 29.62 0.0
04 08:15 NW 24 G 35 10.00 Overcast and Breezy OVC049 35.6 23 60% 24 29.62 0.0
04 07:55 NW 26 G 32 10.00 Overcast and Windy OVC047 35.6 24.8 65% 24 29.61 0.0
04 07:35 NW 26 G 37 10.00 Overcast and Windy OVC043 35.6 24.8 65% 24 29.6 0.0
04 07:15 NW 22 10.00 Overcast and Breezy OVC039 35.6 26.6 70% 25 29.59 0.0
04 06:55 NW 20 G 28 10.00 Mostly Cloudy BKN038 35.6 26.6 70% 26 29.59 0.0
04 06:35 NW 20 G 29 10.00 Partly Cloudy SCT039 33.8 24.8 70% 23 29.58 0.0
04 06:15 NW 23 G 32 10.00 Overcast and Breezy OVC038 35.6 24.8 65% 25 29.57 0.0
04 05:55 NW 22 G 31 10.00 Mostly Cloudy and Breezy BKN036 35.6 26.6 70% 25 29.57 0.0
04 05:35 NW 26 G 35 10.00 Mostly Cloudy and Windy BKN032 35.6 24.8 65% 24 29.55 0.0
04 05:15 NW 23 G 32 10.00 Partly Cloudy and Breezy SCT031 SCT041 35.6 26.6 70% 25 29.54 0.0
04 04:55 NW 26 G 36 10.00 Partly Cloudy and Windy SCT041 35.6 26.6 70% 24 29.53 0.0
04 04:35 NW 25 G 32 10.00 Mostly Cloudy and Breezy BKN038 35.6 26.6 70% 24 29.52 0.0
04 04:15 NW 25 G 37 10.00 Mostly Cloudy and Breezy BKN036 37.4 26.6 65% 27 29.51 0.0
04 03:55 NW 29 G 40 10.00 A Few Clouds and Windy FEW036 35.6 26.6 70% 24 29.5 0.0
04 03:35 NW 29 G 38 10.00 Fair and Windy CLR 37.4 26.6 65% 26 29.49 0.0
04 03:15 NW 29 G 36 10.00 Fair and Windy CLR 37.4 26.6 65% 26 29.49 0.0
04 02:55 NW 29 G 38 10.00 Fair and Windy CLR 37.4 26.6 65% 26 29.49 0.0
04 02:35 NW 24 G 43 10.00 A Few Clouds and Breezy FEW110 37.4 26.6 65% 27 29.48 0.0
Date Time (cdt) Wind (mph) Vis. (mi.) Weather Sky Cond. Air Dwpt Max. Min. Relative Humidity Wind Chill (°F) Heat Index (°F) altimeter (in) sea level (mb) 1 hr 3 hr 6 hr
6 hour
Temperature (ºF) Pressure Precipitation (in)